Location: Bli��� Lhota
(48.7570°N, 14.0120°E)
Time: 08:41:58
(UTC+00:00)

Lacrosse 5 rocket - Pass Details

Date: 18 September 2020
Orbit: 460 x 636 km, 57.0° (Epoch: 27 October)

Event Time Altitude Azimuth Distance (km) Brightness Sun altitude
Rises 19:47:44 0° 288° (WNW) 2,801 6.1 -25.2°
Reaches altitude 10° 19:50:12 10° 301° (WNW) 1,931 5.1 -25.5°
Maximum altitude 19:54:02 28° 1° (N) 1,156 3.2 -26.1°
Enters shadow 19:55:07 25° 25° (NNE) 1,243 3.2 -26.2°
